Location: Chervonnoye
(48.6000°N, 34.4000°E)
Time: 00:02:44
(UTC+00:00)

RS-44 - Pass Details

Date: 01 December 2022
Orbit: 1174 x 1511 km, 82.5° (Epoch: 01 February)

Event Time Altitude Azimuth Distance (km) Brightness Sun altitude
Exits shadow 23:32:15 21° 69° (ENE) 2,797 ? -54.1°
Drops below altitude 10° 23:37:36 10° 31° (NNE) 3,618 ? -53.4°
Sets 23:41:24 0° 17° (NNE) 4,635 ? -52.9°
